Вернуться в каталог

STARLINK-3997

АктивенСвязьVLEO
NORAD 52609·PAYLOAD·🇺🇸 United States

Запущен May 14, 2022 с Cape Canaveral Space Force Station

Loading…

Ближайшие Пролёты (ближайшие 24 часа)

TLE

СвежийSource: CelesTrak SupGP

Эпоха: Sep 14, 2026, 21:33 UTC

1 52609C 22052M   26257.89840278 -.00027774  00000+0 -82062-3 0  2577
2 52609  53.1577 141.5661 0001457  93.5541 243.1651 15.34403369    11

Отслеживайте STARLINK-3997 в реальном времени с AllMySat

Download on the App Store